Temperature
20 21 21 21 21 21 22 24 24 23 23 22 22 22 22 22 20 17 15 14 14 14 14 13 12 12 11 10 10 9 9 8 8 7 7 7 6 6 6 6 6 6 6 6 6 6 6 7 7
20 20 21 21 21 21 22 24 24 22 22 21 20 20 21 21 19 18 16 14 14 14 14 13 13 12 11 11 10 10 9 9 8 8 7 7 7 7 7 6 6 6 6 6 6 6 6 7 7
20 20 21 21 21 21 23 24 22 21 21 20 20 20 21 20 19 18 17 16 15 14 14 13 13 12 11 11 10 10 9 9 8 8 8 7 7 7 7 7 7 7 6 6 7 7 7 7 8
20 21 23 22 22 23 25 24 23 22 20 20 21 21 20 18 18 18 17 16 15 14 13 13 13 12 12 11 10 10 10 9 9 9 8 8 8 8 8 7 7 7 7 7 7 7 7 7 8
21 22 22 21 22 24 25 25 23 23 22 20 20 21 20 18 18 18 17 16 15 14 13 13 13 12 12 11 11 10 10 10 9 9 9 9 8 8 8 8 8 7 7 7 7 7 7 8 8
22 23 21 21 23 25 25 25 24 23 23 22 20 20 19 18 18 18 17 15 14 13 13 13 12 12 12 11 11 11 10 10 10 9 9 9 9 9 8 8 8 8 7 7 7 7 7 7 7
22 21 21 22 22 23 25 24 23 23 23 23 21 20 19 18 18 18 17 15 13 12 12 13 12 12 12 11 11 11 10 10 10 10 9 9 9 9 8 8 8 8 7 7 7 7 7 7 7
21 21 21 21 22 23 24 23 22 21 22 22 21 20 20 18 18 17 16 14 12 12 12 12 12 12 12 11 11 11 10 10 10 10 10 9 9 9 8 8 8 8 7 7 7 7 7 7 7
21 20 19 21 22 22 23 23 22 20 20 20 20 20 18 18 17 16 15 13 12 11 11 11 12 12 12 11 11 10 10 10 10 10 10 9 9 9 8 8 8 8 8 7 7 7 7 7 7
22 19 20 22 23 22 22 22 22 21 19 19 19 19 18 17 16 16 16 15 14 13 12 12 11 11 11 11 10 10 10 10 10 10 10 9 9 9 9 8 8 8 8 7 7 7 7 7 7
22 20 21 23 23 21 20 20 21 21 18 20 20 19 18 17 16 16 16 17 16 15 13 12 11 10 10 10 10 10 10 10 10 10 10 9 9 9 9 8 8 8 8 8 7 7 7 7 6
22 21 22 22 21 19 19 19 20 20 20 20 21 21 19 18 18 17 17 16 15 15 14 14 12 11 10 10 10 10 10 10 10 10 10 10 9 9 8 8 8 8 8 7 7 7 7 6 6
21 20 22 22 20 19 18 18 18 19 19 20 20 20 19 18 18 18 17 16 15 15 15 14 13 12 11 10 10 10 10 10 10 10 10 10 9 9 9 8 8 8 8 8 7 7 7 6 6
21 20 20 21 21 20 19 18 18 19 20 20 20 20 19 18 18 17 16 15 14 15 15 14 13 12 11 11 10 10 10 10 10 10 10 9 9 9 8 8 8 8 7 7 7 7 6 6 6
19 18 19 20 21 20 18 17 18 20 21 21 21 21 20 18 17 16 16 16 15 15 14 14 14 13 12 11 11 11 10 10 10 10 10 10 9 9 8 8 8 8 7 7 7 6 6 6 6
19 19 19 22 20 18 17 16 20 22 22 22 22 22 21 20 19 18 17 16 15 14 13 14 13 13 12 12 11 11 10 10 10 10 10 10 9 9 8 8 8 7 7 7 6 6 6 6 5
19 19 20 21 20 19 17 16 19 21 22 22 22 22 22 21 20 19 18 17 16 14 14 13 13 13 12 12 11 11 10 10 10 10 10 10 9 9 8 8 8 7 7 7 6 6 6 5 5
19 19 19 19 21 20 18 18 19 21 22 22 22 22 21 21 21 20 19 18 16 15 14 13 12 12 12 11 10 10 9 9 9 9 10 10 10 9 8 8 8 7 7 7 6 6 6 5 5
19 18 18 19 20 19 18 18 19 20 21 21 21 21 20 20 20 20 19 18 17 15 14 13 12 12 11 11 10 10 11 10 10 9 9 9 9 9 9 8 8 8 7 7 7 6 5 5 4
18 18 18 19 20 19 17 18 19 20 21 21 20 20 19 19 18 18 18 18 16 15 14 13 12 12 11 12 12 12 11 11 10 9 9 9 9 9 9 9 8 8 7 7 6 6 6 5 4
19 18 18 18 17 18 18 17 21 21 22 21 20 19 18 18 17 17 17 17 16 15 14 13 12 12 11 11 10 9 9 8 9 9 10 10 9 9 9 9 9 8 8 7 7 6 6 5 4
18 18 17 17 16 16 18 16 19 21 20 19 19 19 18 18 17 17 16 16 15 15 14 13 12 11 11 10 10 10 10 11 12 11 11 10 9 9 9 8 8 8 8 7 7 6 6 5 4
18 17 16 16 15 15 17 16 18 20 20 19 18 19 18 17 17 16 16 15 15 14 14 13 12 11 10 9 9 9 9 10 10 9 9 8 8 8 8 8 7 7 7 7 6 6 5 5 4
17 16 16 16 15 15 18 18 17 20 20 19 19 19 18 17 16 16 15 15 15 14 14 13 12 11 10 9 9 8 8 8 8 7 7 7 7 7 7 7 7 7 6 6 5 5 4 4 3
16 16 16 16 14 16 18 18 17 20 20 19 18 18 17 16 15 15 15 14 14 14 13 13 12 11 10 9 9 8 8 7 7 7 7 6 6 7 7 6 6 6 6 5 4 3 3 2 2
18 17 16 16 16 17 18 16 18 21 21 20 19 18 16 15 15 14 14 13 13 13 13 13 12 12 11 10 9 9 8 7 7 7 6 6 6 6 6 6 6 5 5 4 3 2 2 1 1
18 17 17 16 16 15 17 19 20 21 20 19 19 17 16 15 14 14 13 13 13 13 12 12 12 12 11 11 10 9 8 8 7 7 6 6 6 5 5 5 5 5 4 4 3 2 2 1 0
16 16 16 15 15 15 17 18 18 20 19 18 17 16 15 14 14 13 13 13 13 12 12 12 12 12 11 11 11 10 10 9 8 7 7 7 6 6 5 5 4 4 4 3 2 2 1 -0 -1
14 15 15 15 15 14 14 16 19 19 19 17 16 16 15 14 13 13 13 12 12 12 12 12 12 12 11 11 11 11 10 10 9 8 8 7 7 6 6 5 4 4 3 3 2 2 1 -1 -1
17 17 16 14 15 15 14 15 20 19 18 17 16 15 14 14 13 13 12 12 12 12 11 11 11 11 11 10 10 10 10 9 9 9 8 8 7 7 6 5 5 4 3 3 2 1 1 -0 -1
Wind_Speed
10 12 8 3 4 5 8 1 3 6 5 5 4 3 6 6 4 4 8 12 16 21 25 24 23 20 18 16 15 13 13 12 12 12 11 11 12 12 12 13 13 14 14 15 16 16 17 18 19
10 8 5 4 5 6 6 2 6 10 7 5 3 2 3 1 7 11 8 12 20 23 25 24 24 22 20 18 16 15 13 12 12 12 11 11 11 11 11 12 12 13 13 14 14 15 16 16 17
8 8 4 4 7 8 5 6 10 8 7 3 4 3 4 5 11 11 10 16 20 22 25 25 25 23 21 19 17 16 14 13 12 12 11 11 10 10 11 10 11 11 11 12 13 13 14 15 15
5 4 5 6 10 10 3 3 9 8 6 4 4 4 4 6 7 11 15 15 15 18 25 26 26 24 22 20 18 17 15 14 13 12 11 11 10 10 10 9 9 9 10 10 11 11 12 13 14
4 4 6 8 12 11 4 5 7 3 6 9 6 5 6 6 12 16 16 14 15 15 24 26 26 24 23 21 20 18 16 15 14 13 12 11 10 10 9 8 8 8 8 8 9 10 10 11 12
4 5 7 9 11 8 3 4 6 5 7 6 9 6 4 8 12 15 14 13 12 14 22 26 26 25 23 22 20 19 18 16 15 13 12 11 11 10 9 8 7 7 6 6 7 8 8 9 10
4 5 8 11 11 10 7 5 2 3 7 5 10 5 7 8 11 14 13 11 12 16 20 23 23 24 23 22 21 20 19 17 16 15 13 12 11 10 9 8 7 6 5 5 5 5 6 7 8
4 5 9 11 11 10 4 3 2 4 7 3 8 6 4 10 13 13 12 10 11 11 14 21 22 22 22 22 22 21 20 19 17 16 14 13 12 10 9 8 7 6 5 4 3 3 3 3 5
3 4 8 11 9 8 5 2 1 4 4 4 4 1 7 17 15 13 11 10 11 13 11 17 21 22 22 21 22 22 21 20 18 17 16 14 12 11 10 9 9 7 5 4 2 1 1 3 2
4 5 10 9 7 8 9 9 7 4 7 8 8 7 11 15 15 16 16 17 17 16 15 11 17 21 22 22 21 21 20 20 19 18 17 16 15 15 13 12 10 8 7 6 5 4 5 5 2
7 8 9 9 7 6 7 9 9 9 11 11 12 14 16 15 16 17 18 19 18 16 15 14 12 20 21 19 20 19 19 19 20 21 21 19 16 14 13 13 12 10 9 10 9 9 10 6 2
7 10 11 8 4 3 6 8 9 12 13 10 10 5 19 19 20 21 21 17 16 15 17 15 13 14 18 19 18 19 18 18 19 21 24 20 15 14 15 14 16 15 14 13 12 12 10 7 6
9 11 10 6 5 7 9 12 12 17 16 13 12 9 18 20 19 19 17 16 16 18 18 16 14 12 14 14 14 16 16 18 20 21 23 22 16 12 14 14 16 17 16 15 12 12 10 9 8
8 9 11 11 10 7 9 11 8 15 13 13 13 13 14 19 18 16 16 17 19 19 19 17 17 13 14 11 10 12 16 17 19 20 22 23 20 16 14 13 14 15 16 15 15 13 9 8 8
5 8 12 12 11 4 3 10 10 17 13 12 12 12 14 16 17 19 18 18 17 17 18 19 17 14 13 12 12 14 16 18 17 19 23 23 22 19 17 12 12 15 17 16 13 11 9 6 6
6 6 7 3 8 6 1 10 10 9 10 11 11 11 12 16 19 19 18 17 16 14 17 19 18 17 16 12 12 13 16 17 17 19 22 24 24 22 18 12 11 17 17 15 9 6 5 5 5
7 6 8 5 6 6 7 12 14 12 13 12 10 9 9 11 15 18 19 18 17 16 16 17 17 17 16 13 11 13 14 15 17 19 20 23 25 24 19 14 14 18 14 12 9 6 6 6 6
8 9 9 10 5 6 9 15 20 14 10 8 6 6 4 4 6 11 17 17 16 15 15 16 16 16 14 12 9 9 10 9 15 17 19 22 24 25 21 16 16 17 9 8 8 8 7 6 5
8 9 13 13 6 4 10 16 19 15 6 6 7 8 8 7 7 2 8 13 13 13 13 15 16 16 14 12 13 14 14 11 9 12 19 22 23 25 22 14 14 14 11 11 11 8 8 8 5
8 11 12 11 5 8 12 15 17 6 4 5 6 8 9 9 9 8 4 7 10 12 12 13 14 16 15 13 12 9 9 8 9 7 14 22 23 24 24 17 11 12 11 13 13 10 8 7 8
10 10 9 9 10 9 8 10 2 7 8 8 9 9 8 9 9 8 5 4 7 9 12 12 13 15 15 13 7 7 7 7 9 11 12 15 22 24 22 21 15 12 13 14 16 14 14 11 10
8 3 6 8 8 6 6 6 6 5 9 9 9 9 8 8 8 6 5 1 3 7 8 11 11 12 13 13 11 12 13 16 15 11 10 11 18 20 23 21 20 14 13 15 16 16 13 11 9
5 5 7 7 7 6 6 5 8 4 7 8 9 8 8 8 8 7 4 2 2 4 6 8 9 10 11 13 14 13 15 13 9 9 11 13 13 17 20 21 18 16 14 15 15 15 15 14 12
6 8 10 5 3 5 5 5 7 1 6 8 8 8 8 8 9 8 6 4 1 2 4 5 7 8 9 12 13 14 16 13 11 12 12 12 11 13 16 17 16 16 15 16 15 15 16 16 15
5 5 4 2 4 4 3 3 8 3 6 8 8 8 8 9 8 8 9 7 5 1 3 5 7 8 9 10 12 14 15 14 15 13 12 11 11 12 15 17 17 16 15 13 13 15 15 16 16
4 3 4 4 5 5 4 6 6 1 3 6 8 8 8 9 8 8 8 8 6 5 2 3 6 8 9 10 11 12 12 11 12 13 12 12 12 12 12 17 18 17 15 16 14 15 15 14 16
4 2 2 3 7 6 6 6 6 3 3 6 7 8 8 8 8 7 7 6 6 5 3 2 4 6 8 9 10 10 11 12 13 12 12 11 11 10 12 15 17 17 17 17 16 16 17 15 16
4 6 3 3 4 5 7 7 2 2 5 6 7 7 7 7 7 6 5 5 4 3 2 1 2 4 6 8 9 9 10 11 11 11 13 13 12 11 11 12 14 16 17 17 17 16 15 16 16
6 4 5 5 6 4 5 6 4 6 4 6 7 7 7 6 5 4 5 5 5 4 3 2 3 4 5 6 7 8 9 10 10 11 12 12 12 12 13 12 13 15 16 17 18 18 16 18 17
2 4 5 5 7 6 7 8 6 2 6 6 6 6 5 4 3 4 5 7 6 7 6 5 4 4 5 5 6 7 8 8 9 11 11 11 12 12 13 12 13 14 15 16 18 20 19 19 20
Wind_Direction
268 250 240 253 248 251 270 149 97 101 93 71 57 340 330 347 17 135 171 163 136 145 152 157 155 154 153 149 145 140 135 129 123 116 109 103 97 91 85 81 76 72 67 64 61 59 57 56 55
277 246 245 244 256 269 280 92 86 72 76 89 94 274 271 107 103 125 159 152 145 149 153 159 158 157 156 154 152 148 143 138 132 125 118 111 104 97 91 85 80 76 70 66 62 59 56 55 53
272 258 249 241 251 262 292 56 86 89 99 151 183 220 285 90 128 148 157 144 148 151 156 161 160 160 160 159 157 154 150 146 141 134 128 120 113 106 99 92 85 79 73 68 64 59 54 52 50
263 232 240 249 265 275 299 65 98 124 145 206 249 207 163 90 126 142 142 149 152 153 157 159 163 164 164 164 162 159 156 153 149 144 138 131 124 116 108 101 93 85 78 71 65 60 54 50 47
235 250 246 255 261 267 257 117 114 195 189 184 204 260 139 97 102 126 145 158 158 156 154 161 167 168 168 168 167 165 163 160 157 152 148 143 136 129 121 113 104 94 83 74 66 60 53 47 44
256 253 263 268 277 292 321 118 147 214 262 198 172 234 130 130 130 141 156 164 160 156 153 164 171 172 172 172 172 170 169 167 164 162 158 154 148 142 136 128 118 106 92 79 68 59 50 43 39
297 288 279 288 296 303 317 90 156 261 279 255 160 197 133 165 150 146 159 168 162 159 156 164 174 175 176 177 176 175 174 173 171 170 167 163 160 156 150 145 138 128 113 96 77 60 46 37 34
314 295 283 283 286 297 350 77 48 340 297 319 148 210 155 167 145 145 159 175 167 163 162 165 175 177 178 180 181 180 179 179 178 176 174 171 170 166 163 161 159 152 142 128 104 69 36 22 24
271 261 269 276 293 314 2 318 242 132 288 285 196 114 90 129 140 150 162 182 179 176 175 170 176 179 179 180 185 183 183 183 182 180 180 177 173 173 177 178 174 174 172 172 169 191 290 285 291
221 255 267 286 320 331 328 314 303 223 228 241 217 136 130 141 158 170 178 186 189 186 184 179 179 179 180 184 184 182 184 184 180 178 181 182 190 188 184 182 182 189 193 200 209 231 248 264 285
245 252 274 297 331 343 310 295 280 261 256 239 226 188 162 167 176 186 192 194 194 188 185 187 185 180 180 182 177 181 184 182 184 182 181 191 197 184 169 169 186 196 205 214 216 229 238 243 217
248 276 287 294 352 323 286 285 285 254 247 251 272 240 168 179 188 195 198 198 193 190 192 189 188 182 181 179 178 181 184 183 188 190 183 189 189 179 180 181 185 195 203 213 211 221 221 220 228
265 264 271 283 278 257 265 270 277 267 263 261 254 236 176 191 199 203 204 200 194 194 193 192 188 186 181 178 181 184 185 183 186 189 186 186 186 185 185 193 193 196 199 201 210 220 218 214 224
305 321 302 279 258 252 259 269 266 264 255 249 239 228 196 197 202 204 207 206 201 197 194 191 192 188 184 184 184 188 186 183 184 187 190 190 188 190 188 192 196 199 202 201 206 215 214 214 217
304 287 277 251 223 215 299 275 237 250 253 253 241 222 209 202 200 207 209 209 205 197 191 190 193 190 188 189 189 191 190 187 188 189 193 196 195 193 192 192 194 199 202 204 207 217 214 218 218
237 254 265 211 165 142 164 274 263 308 304 270 250 232 216 209 206 207 207 205 203 194 189 189 192 194 193 192 192 194 195 194 195 193 194 198 200 198 194 194 195 196 199 199 196 204 199 214 215
222 262 304 354 169 182 209 269 285 296 289 280 269 254 236 223 213 208 203 199 196 194 187 186 188 192 194 191 192 198 199 201 199 198 197 199 201 201 197 197 198 195 194 194 200 198 199 207 213
334 330 318 313 286 240 254 277 295 305 299 304 322 335 320 285 249 213 198 192 188 187 184 183 185 189 190 190 192 199 208 206 203 201 201 199 201 201 201 200 198 194 192 194 197 201 201 205 204
328 304 296 293 316 330 281 287 296 301 321 8 17 18 14 2 346 341 179 177 173 177 181 182 186 189 190 195 199 203 209 208 206 203 202 200 200 200 202 204 201 198 199 199 196 194 201 205 188
286 284 286 294 352 320 283 288 286 269 104 77 57 50 38 22 17 23 75 147 167 176 183 185 188 190 195 201 203 204 203 209 212 207 207 204 202 202 205 205 203 201 201 201 200 196 196 200 187
274 279 302 324 328 280 276 300 271 123 112 98 78 67 56 43 35 27 43 128 168 184 189 194 192 193 195 194 189 194 199 207 213 213 213 209 206 205 206 207 206 205 205 208 205 199 196 203 198
286 357 338 319 321 307 328 304 286 160 118 101 87 70 58 47 48 41 29 36 198 203 195 195 194 194 193 191 197 199 207 216 218 215 213 210 211 210 210 209 209 210 210 212 209 206 203 195 200
298 339 284 282 288 285 250 234 278 208 128 110 96 79 64 50 44 37 29 351 255 204 194 195 198 201 195 198 203 210 221 226 225 217 216 215 215 215 214 212 212 215 215 214 211 209 206 206 204
298 291 260 226 265 263 217 205 283 334 105 103 90 76 56 46 40 30 22 14 342 182 184 191 204 214 206 204 208 214 223 226 226 224 224 222 220 219 217 215 215 217 218 217 214 213 211 211 211
238 297 315 231 220 230 115 237 255 305 88 103 98 80 62 49 38 24 16 9 5 354 199 198 210 224 220 215 217 221 224 226 230 231 230 228 227 224 219 217 219 220 220 217 213 216 217 214 213
300 313 311 303 298 319 282 240 254 337 95 124 120 102 76 58 44 32 22 15 9 7 341 216 219 226 225 224 226 226 225 227 234 234 233 234 234 230 218 215 219 220 218 219 217 220 221 219 219
285 232 57 323 286 268 251 242 250 233 132 108 95 79 74 64 50 35 24 19 12 13 4 316 248 233 228 227 229 230 229 230 233 232 234 240 241 235 220 215 216 218 217 218 217 223 222 221 221
283 326 307 249 274 285 279 275 272 41 12 50 54 66 69 63 45 29 17 7 359 357 338 319 279 257 241 230 228 232 231 232 233 232 235 238 239 237 230 220 216 216 217 217 219 224 221 221 223
177 205 224 256 272 276 289 274 346 345 39 48 49 64 73 61 36 12 359 349 343 344 332 305 274 261 256 245 239 238 237 235 234 236 238 237 237 235 234 229 223 220 220 218 220 224 219 222 223
146 241 242 249 263 268 284 278 302 40 68 67 60 62 75 72 31 357 355 346 343 339 329 317 296 275 261 251 251 252 251 245 242 244 244 240 239 236 235 232 230 228 223 219 220 223 222 222 223
Height
1537 1539 1540 1542 1543 1543 1539 1530 1527 1532 1535 1539 1541 1542 1541 1541 1544 1553 1551 1550 1550 1552 1554 1557 1560 1562 1564 1565 1566 1567 1568 1569 1569 1569 1569 1569 1569 1569 1569 1568 1568 1567 1567 1566 1565 1565 1564 1563 1562
1537 1540 1543 1542 1543 1548 1539 1526 1528 1532 1537 1540 1541 1542 1542 1541 1542 1545 1546 1548 1548 1550 1552 1555 1558 1560 1562 1564 1565 1566 1567 1568 1568 1568 1569 1569 1569 1569 1568 1568 1568 1567 1567 1566 1565 1565 1564 1563 1562
1537 1540 1542 1539 1541 1543 1535 1527 1530 1535 1538 1540 1541 1542 1541 1541 1540 1542 1543 1545 1547 1549 1550 1553 1556 1558 1560 1562 1564 1565 1566 1567 1567 1567 1568 1568 1568 1568 1568 1568 1567 1567 1566 1566 1565 1565 1564 1564 1563
1539 1541 1540 1539 1539 1529 1524 1524 1528 1534 1538 1539 1540 1540 1540 1540 1539 1540 1541 1543 1545 1547 1548 1551 1554 1556 1558 1560 1562 1563 1564 1565 1566 1566 1567 1567 1567 1567 1567 1567 1567 1567 1566 1566 1565 1565 1564 1564 1563
1540 1539 1539 1539 1534 1524 1519 1521 1526 1531 1533 1535 1537 1537 1537 1537 1537 1538 1540 1541 1543 1545 1546 1548 1552 1554 1556 1558 1560 1561 1563 1564 1565 1565 1566 1566 1566 1566 1566 1566 1566 1566 1566 1565 1565 1564 1564 1563 1563
1540 1536 1541 1541 1530 1520 1518 1519 1524 1527 1529 1530 1533 1535 1534 1534 1534 1536 1538 1539 1541 1543 1544 1546 1549 1552 1554 1556 1558 1559 1561 1562 1563 1564 1564 1565 1565 1565 1566 1566 1566 1565 1565 1565 1564 1564 1564 1563 1563
1540 1537 1539 1536 1531 1524 1520 1520 1523 1525 1526 1528 1528 1531 1530 1531 1531 1533 1535 1538 1539 1541 1542 1543 1546 1549 1551 1553 1555 1557 1558 1560 1561 1562 1563 1563 1564 1564 1564 1564 1564 1564 1564 1564 1564 1563 1563 1563 1562
1539 1538 1538 1535 1531 1526 1520 1522 1524 1525 1526 1526 1526 1527 1526 1527 1528 1530 1532 1535 1537 1538 1539 1540 1543 1545 1548 1550 1552 1554 1556 1557 1558 1559 1560 1561 1562 1562 1563 1563 1563 1563 1563 1563 1563 1562 1562 1562 1562
1538 1541 1541 1534 1529 1524 1521 1522 1523 1523 1524 1524 1524 1525 1523 1523 1525 1526 1528 1531 1533 1535 1536 1537 1538 1541 1544 1546 1549 1551 1552 1554 1555 1556 1558 1559 1559 1560 1561 1561 1561 1561 1561 1561 1561 1561 1561 1560 1560
1536 1540 1534 1526 1524 1523 1522 1522 1522 1521 1520 1521 1522 1522 1520 1521 1522 1522 1523 1524 1526 1528 1530 1533 1534 1537 1539 1542 1544 1546 1548 1550 1551 1553 1555 1556 1557 1557 1558 1558 1558 1559 1559 1559 1559 1559 1559 1559 1558
1531 1531 1527 1524 1523 1522 1522 1521 1520 1519 1516 1515 1516 1515 1513 1515 1516 1517 1518 1519 1521 1523 1526 1528 1531 1533 1535 1537 1539 1541 1543 1545 1547 1549 1551 1552 1553 1554 1554 1555 1556 1556 1556 1557 1557 1557 1557 1556 1556
1528 1526 1525 1522 1522 1522 1522 1520 1517 1513 1510 1510 1511 1511 1508 1508 1509 1510 1512 1514 1517 1519 1520 1523 1526 1528 1530 1532 1534 1536 1538 1540 1542 1544 1546 1548 1549 1550 1551 1552 1552 1553 1553 1554 1554 1554 1554 1554 1553
1526 1524 1522 1520 1520 1520 1520 1518 1516 1508 1505 1505 1506 1507 1505 1503 1504 1506 1508 1510 1512 1513 1515 1517 1520 1523 1525 1527 1529 1531 1533 1535 1537 1540 1541 1543 1545 1546 1547 1548 1548 1549 1549 1550 1550 1550 1550 1550 1550
1524 1522 1520 1518 1517 1516 1515 1513 1513 1500 1499 1499 1499 1500 1501 1499 1499 1501 1503 1504 1506 1507 1509 1512 1515 1518 1520 1522 1524 1526 1528 1530 1532 1534 1537 1538 1540 1542 1542 1543 1544 1544 1545 1546 1546 1546 1546 1546 1546
1525 1523 1517 1510 1510 1512 1514 1510 1504 1495 1495 1495 1494 1494 1494 1494 1495 1495 1496 1498 1500 1502 1504 1506 1509 1512 1514 1516 1518 1521 1523 1525 1527 1529 1531 1533 1535 1536 1537 1538 1539 1540 1541 1541 1542 1542 1542 1542 1542
1523 1523 1520 1505 1506 1510 1516 1511 1496 1494 1493 1490 1489 1488 1487 1487 1487 1488 1490 1492 1495 1498 1500 1501 1504 1506 1508 1511 1513 1515 1517 1519 1521 1523 1525 1527 1529 1530 1531 1532 1533 1535 1536 1536 1536 1537 1537 1537 1537
1521 1523 1516 1510 1507 1508 1512 1506 1491 1492 1489 1485 1483 1482 1481 1481 1481 1481 1483 1485 1489 1492 1495 1496 1498 1500 1503 1505 1508 1510 1512 1513 1515 1516 1517 1519 1522 1524 1525 1526 1528 1529 1529 1530 1530 1531 1531 1531 1531
1524 1524 1519 1516 1506 1505 1506 1500 1488 1486 1484 1481 1479 1478 1478 1477 1477 1477 1477 1480 1483 1487 1490 1491 1493 1495 1498 1501 1503 1504 1506 1506 1508 1509 1510 1512 1514 1516 1518 1519 1521 1522 1522 1523 1523 1524 1525 1525 1525
1521 1523 1522 1513 1504 1505 1504 1497 1487 1482 1481 1480 1479 1478 1478 1477 1476 1475 1475 1477 1480 1483 1485 1487 1488 1489 1492 1493 1494 1495 1496 1498 1500 1501 1503 1504 1506 1508 1510 1511 1513 1514 1514 1515 1516 1517 1517 1518 1519
1522 1523 1519 1509 1502 1505 1501 1494 1483 1478 1479 1480 1480 1480 1479 1478 1476 1475 1475 1477 1478 1479 1481 1482 1483 1484 1485 1486 1488 1489 1491 1492 1494 1495 1496 1497 1498 1499 1501 1502 1503 1505 1506 1507 1507 1508 1509 1510 1511
1519 1519 1516 1514 1509 1501 1501 1497 1481 1477 1477 1479 1481 1481 1481 1480 1479 1477 1477 1477 1477 1477 1477 1478 1478 1479 1479 1481 1484 1485 1486 1486 1486 1486 1486 1488 1489 1490 1491 1493 1494 1496 1496 1497 1497 1499 1500 1500 1501
1520 1513 1515 1515 1519 1515 1506 1516 1490 1478 1478 1479 1481 1482 1482 1481 1480 1479 1478 1477 1476 1475 1474 1474 1475 1475 1475 1476 1477 1477 1476 1474 1474 1477 1479 1481 1482 1482 1482 1483 1484 1485 1486 1486 1487 1489 1490 1491 1490
1514 1512 1514 1515 1519 1519 1507 1512 1496 1477 1480 1480 1481 1482 1482 1482 1481 1479 1478 1476 1474 1473 1472 1471 1471 1471 1472 1472 1471 1471 1470 1469 1471 1472 1472 1472 1473 1473 1473 1474 1474 1475 1475 1476 1477 1478 1479 1479 1480
1514 1513 1510 1513 1518 1522 1501 1505 1499 1480 1478 1479 1480 1482 1482 1482 1481 1479 1477 1475 1473 1471 1469 1468 1467 1467 1467 1467 1467 1466 1465 1465 1466 1465 1465 1465 1464 1464 1464 1464 1464 1464 1465 1465 1466 1467 1468 1468 1469
1516 1519 1520 1521 1527 1516 1497 1501 1496 1476 1474 1476 1479 1481 1481 1481 1480 1478 1477 1475 1472 1470 1467 1466 1464 1464 1464 1463 1462 1461 1461 1461 1460 1459 1459 1459 1458 1456 1454 1455 1455 1454 1454 1455 1456 1457 1457 1457 1457
1512 1516 1527 1531 1522 1511 1497 1502 1487 1472 1472 1474 1477 1479 1479 1479 1479 1478 1477 1475 1472 1470 1467 1464 1462 1461 1460 1459 1457 1457 1456 1454 1453 1452 1452 1451 1450 1449 1448 1447 1446 1445 1446 1446 1446 1446 1446 1446 1446
1512 1512 1513 1522 1519 1519 1503 1486 1475 1469 1471 1473 1475 1477 1478 1478 1478 1477 1476 1474 1472 1470 1467 1464 1461 1459 1457 1455 1453 1451 1450 1448 1446 1445 1445 1443 1443 1442 1442 1440 1438 1436 1436 1436 1436 1435 1434 1435 1434
1514 1514 1517 1522 1525 1523 1502 1492 1486 1475 1474 1474 1475 1476 1477 1477 1477 1477 1476 1474 1472 1469 1466 1463 1460 1458 1455 1452 1449 1447 1444 1442 1440 1438 1436 1434 1433 1434 1433 1431 1429 1427 1426 1425 1425 1423 1423 1424 1423
1516 1516 1515 1516 1514 1522 1519 1502 1473 1472 1472 1474 1475 1476 1476 1477 1476 1476 1475 1473 1471 1469 1466 1462 1459 1456 1452 1449 1446 1442 1439 1436 1434 1431 1428 1426 1424 1423 1422 1421 1420 1418 1416 1415 1414 1412 1412 1412 1412
1502 1505 1509 1520 1516 1509 1513 1500 1471 1469 1471 1473 1475 1476 1476 1475 1475 1474 1473 1472 1469 1467 1464 1460 1457 1453 1449 1445 1442 1438 1435 1432 1428 1425 1422 1419 1416 1414 1413 1411 1409 1407 1406 1405 1403 1401 1401 1400 1400